Wind_Speed
10 11 10 10 11 11 10 9 8 8 8 8 8 8 9 9 9 9 8 7 7 7 8 8 8 7 6 5 5 5 5 6 6 6 7 7 8 8 8 9 9 9 10 10 10 10 10 10 10
11 11 11 12 12 12 11 10 10 9 10 9 9 10 10 10 11 10 10 9 8 8 9 10 9 7 7 6 6 6 7 7 7 8 8 8 9 9 9 9 10 10 10 11 11 11 11 11 10
11 11 12 12 13 12 11 11 11 11 11 10 9 10 11 11 11 12 11 10 10 9 10 10 10 8 8 8 8 8 9 9 9 9 9 9 10 10 10 10 10 10 11 11 11 11 11 11 11
12 12 13 13 13 13 12 13 13 13 12 12 11 11 12 12 12 12 12 12 11 11 10 11 10 9 9 9 9 9 10 10 10 10 10 10 10 10 10 11 11 11 11 12 12 12 12 12 12
14 14 14 13 13 14 15 15 15 15 14 14 14 14 13 13 14 14 13 12 12 12 11 11 11 11 11 11 11 11 11 11 11 11 11 11 11 11 11 11 11 11 12 12 12 12 12 12 13
15 15 14 14 14 15 15 16 16 16 15 15 15 15 14 15 15 15 14 13 13 13 12 11 12 12 12 13 12 12 12 12 12 12 11 11 12 12 12 12 12 12 12 13 13 13 13 13 13
15 15 15 14 15 15 15 16 17 17 17 17 16 16 16 16 16 16 16 15 14 13 14 13 13 13 14 14 14 13 12 12 13 12 12 12 12 12 13 13 13 13 13 13 14 13 14 14 14
14 15 15 15 15 15 16 17 19 18 19 19 19 18 18 18 17 17 16 16 16 16 16 15 14 15 15 15 15 14 13 13 13 13 13 12 12 13 13 14 14 14 14 14 14 14 15 15 15
13 15 15 15 14 15 17 18 19 19 19 19 19 18 19 18 18 17 17 16 16 16 15 15 16 16 15 15 14 14 13 13 13 13 13 13 13 13 14 15 15 15 15 15 15 15 15 16 15
13 14 14 14 15 16 18 19 19 20 20 19 19 19 19 18 17 17 17 16 16 16 16 15 16 16 16 15 15 15 14 13 14 14 14 14 14 14 15 15 16 16 16 16 16 16 16 16 15
12 13 14 15 17 18 19 20 20 20 20 20 19 19 19 19 19 18 18 18 18 17 16 16 15 15 16 16 16 15 14 14 15 15 15 15 15 15 15 16 17 17 16 16 16 16 16 16 16
12 13 14 15 17 18 19 20 20 20 20 20 20 20 20 19 19 19 18 19 18 18 18 17 16 16 17 17 17 16 16 15 16 16 16 16 15 16 16 16 17 17 17 17 17 17 17 17 17
11 12 13 14 16 17 18 19 20 20 19 20 20 21 20 20 20 19 19 18 18 18 17 17 17 17 17 17 16 16 16 16 17 17 17 17 17 17 17 17 17 17 17 18 18 18 18 18 18
11 12 13 14 15 17 18 18 19 19 19 20 20 20 21 20 20 19 18 19 19 18 18 17 16 17 16 16 17 17 17 17 17 17 16 17 17 17 18 18 17 17 18 18 18 18 18 18 18
11 12 12 14 16 16 17 17 18 19 19 20 20 19 20 20 19 18 17 18 19 18 18 18 17 17 17 17 16 16 17 17 17 17 17 18 17 18 18 18 19 19 19 19 18 19 19 19 19
11 12 13 13 15 16 17 16 17 18 18 19 20 19 19 20 19 19 18 18 17 18 17 17 17 17 17 17 16 17 17 17 17 16 17 18 18 18 19 19 20 20 20 20 19 19 20 20 21
12 13 14 14 15 15 16 15 16 17 18 19 19 19 19 19 20 20 19 18 16 16 16 15 15 15 16 16 17 17 18 17 17 17 19 18 18 19 19 20 21 21 20 20 19 20 21 21 21
13 14 15 15 15 15 15 15 17 17 17 18 18 19 20 19 19 19 18 17 16 15 15 15 14 15 15 15 16 17 16 16 17 18 19 18 18 19 20 21 20 20 20 20 20 20 21 21 21
14 15 16 15 16 16 15 15 16 16 16 17 17 17 18 19 18 17 17 17 17 14 14 14 15 15 15 15 15 15 15 15 16 17 18 18 19 19 20 20 20 20 20 20 21 20 20 20 20
15 16 16 15 16 16 16 15 16 16 15 16 16 16 17 17 18 18 18 17 16 15 13 13 13 13 13 13 14 15 15 15 15 16 17 17 18 19 20 20 20 19 20 20 20 20 19 19 19
15 16 15 15 15 16 16 15 15 15 15 16 16 16 15 16 17 17 18 17 17 16 15 14 13 13 13 14 15 16 17 16 16 17 17 18 18 18 18 19 20 19 20 20 20 20 20 19 19
14 15 15 15 15 16 16 15 13 14 15 16 15 15 15 15 13 14 14 16 16 16 16 15 14 13 14 14 15 16 17 17 17 17 16 17 17 17 17 18 19 20 20 20 19 19 19 19 19
15 16 16 15 15 15 15 15 13 13 14 14 15 14 13 12 12 13 14 14 15 15 14 14 14 14 14 15 16 17 18 17 17 16 16 17 17 17 17 17 17 19 19 20 19 19 19 19 20
17 16 16 15 14 14 14 15 13 13 14 14 14 14 13 13 12 13 13 12 13 13 13 14 14 13 13 14 15 16 17 16 16 16 16 16 17 18 17 17 17 18 19 19 19 19 19 20 20
16 17 17 16 15 14 13 14 13 13 13 13 13 13 13 13 13 13 12 11 10 11 12 13 13 13 13 14 14 15 16 16 16 16 16 17 17 17 17 17 17 18 19 18 18 19 18 18 19
15 16 17 17 16 14 13 15 14 13 13 14 13 13 12 11 11 11 11 11 10 10 11 12 12 12 13 13 13 13 14 15 15 16 16 17 17 17 17 17 16 16 17 18 18 18 18 18 19
16 16 16 17 16 15 14 14 14 14 14 14 13 13 12 11 10 9 9 9 9 10 11 11 11 11 12 12 12 13 13 14 15 16 17 17 16 16 16 15 14 15 15 17 18 18 18 18 17
17 17 17 16 15 15 14 15 14 14 14 14 13 13 12 11 10 8 8 9 9 10 11 11 11 12 12 13 13 13 14 15 15 16 16 16 16 15 15 14 14 14 15 16 17 17 17 17 18
17 18 17 17 16 16 16 15 14 14 14 14 13 13 12 11 9 8 9 9 10 11 11 11 11 11 12 13 13 14 14 15 16 15 15 14 14 13 13 14 15 15 16 17 17 17 17 18 18
17 17 17 17 17 17 17 15 15 15 14 13 13 13 12 11 10 10 10 11 11 11 11 11 11 11 12 12 11 12 13 14 15 15 15 14 14 14 14 15 15 16 16 17 17 17 17 17 17
Wind_Direction
244 237 229 230 233 233 233 241 251 258 271 281 287 298 303 307 308 308 311 310 300 298 301 302 301 296 287 283 284 291 298 301 304 302 301 303 304 306 306 309 308 307 307 306 307 307 306 306 304
246 242 236 233 234 229 234 242 251 260 269 279 287 290 294 300 301 305 306 308 302 300 299 296 295 289 280 275 276 283 289 293 295 296 295 297 297 300 302 304 304 305 307 305 305 305 302 302 303
248 247 245 240 239 235 235 243 255 262 267 274 283 287 287 291 295 298 301 303 301 296 295 290 290 282 278 274 275 279 283 285 288 290 292 294 296 297 298 301 301 302 303 305 303 301 299 299 299
252 248 246 243 242 239 241 246 255 261 267 273 279 284 284 289 290 295 298 296 292 291 291 287 281 277 279 277 276 278 280 281 283 284 286 289 293 297 298 299 299 298 299 301 300 298 296 296 297
251 249 245 245 245 244 247 251 257 262 265 272 280 279 281 287 289 289 292 290 286 285 286 284 278 277 278 278 277 277 279 280 278 279 283 283 288 292 293 294 294 295 296 297 297 297 294 293 294
252 251 247 245 247 248 249 255 260 263 266 272 277 279 281 286 289 289 290 289 283 285 283 282 282 279 280 280 278 276 276 276 275 276 279 281 284 285 287 291 292 292 292 293 293 293 292 291 291
253 253 249 248 248 252 255 259 262 266 268 272 278 281 284 286 288 287 290 290 287 287 286 284 286 282 280 279 278 275 273 273 273 276 276 280 283 284 285 287 289 291 290 292 292 291 292 292 292
253 254 252 253 254 255 259 262 264 267 270 274 277 279 281 283 284 284 286 287 286 287 286 284 281 280 277 274 272 270 269 268 269 271 273 275 278 281 283 284 287 288 289 289 290 287 287 289 290
253 253 253 253 255 258 262 263 265 270 271 273 275 276 277 280 281 282 283 283 282 282 282 280 278 277 276 274 270 268 266 264 264 269 272 273 274 278 281 281 283 284 284 285 285 285 286 287 286
257 253 252 252 257 260 260 264 265 269 272 276 277 278 277 280 281 281 283 279 278 277 277 277 274 273 273 275 272 270 265 265 266 268 272 273 275 276 278 281 282 284 283 283 283 281 282 283 284
258 253 252 255 259 261 260 263 266 269 272 275 278 279 279 281 282 281 280 278 276 272 270 274 268 272 273 273 272 268 266 265 266 267 269 273 274 276 278 281 283 283 281 280 281 280 278 278 282
259 257 256 257 259 260 262 264 266 269 272 276 278 279 279 279 283 282 283 279 274 271 270 271 268 272 272 271 268 266 267 265 265 265 267 270 273 274 277 281 282 281 281 281 280 279 278 278 280
257 260 263 264 263 263 266 267 270 272 273 275 277 277 279 278 280 282 282 280 274 274 271 270 268 267 266 264 265 266 265 266 265 265 265 266 269 273 275 279 282 282 283 286 285 282 281 279 280
261 265 267 267 267 269 271 273 274 274 274 275 277 278 280 277 279 281 281 282 277 275 272 268 268 266 262 261 265 264 261 264 264 263 261 264 268 273 274 277 278 282 284 285 284 283 284 283 282
262 265 266 267 269 275 276 274 277 278 275 276 276 277 279 276 278 280 281 283 278 275 271 269 267 267 263 261 263 258 260 263 260 259 260 262 268 271 272 275 277 280 281 282 283 282 284 285 285
266 265 265 271 275 276 277 278 279 279 279 278 277 278 277 277 277 279 282 282 275 271 268 267 266 265 264 263 264 262 263 261 258 259 263 265 270 272 274 275 277 278 279 281 284 285 285 286 286
268 268 268 271 276 280 283 283 282 282 280 281 279 276 275 276 277 278 280 279 275 270 267 267 267 265 264 264 261 261 262 259 257 258 262 266 270 273 274 275 277 276 277 279 282 286 286 286 287
271 270 272 276 279 282 286 286 282 283 286 286 283 278 274 275 278 276 274 272 271 268 268 269 265 265 266 265 264 261 262 260 256 259 263 267 271 275 274 276 275 274 275 278 281 285 287 287 287
273 276 280 284 283 285 288 289 285 286 287 289 287 282 278 275 275 273 271 270 270 268 271 272 269 265 266 267 265 261 264 265 263 263 266 268 272 274 274 275 275 274 276 278 281 285 289 288 286
277 281 284 287 289 289 290 292 290 288 290 291 290 283 276 275 273 270 271 269 264 266 268 271 267 267 267 267 262 260 264 268 269 267 271 271 272 272 272 273 273 277 279 281 282 285 287 287 286
278 283 288 290 292 294 294 294 291 289 293 296 291 285 279 273 271 270 268 268 269 268 271 270 267 267 264 263 262 262 266 269 270 269 271 272 272 272 272 274 276 277 278 278 280 282 285 287 287
278 281 285 289 292 296 300 299 295 292 292 292 290 286 283 278 271 269 269 269 271 270 270 269 269 271 266 261 262 268 268 268 270 269 271 274 276 277 278 277 277 276 277 280 280 282 285 285 286
279 281 283 286 290 295 299 300 301 297 293 292 290 292 288 285 278 274 271 270 271 268 269 268 269 269 265 264 263 267 267 267 268 270 273 274 275 278 282 281 278 277 277 277 277 279 284 283 283
280 280 280 283 288 294 298 299 301 301 299 296 293 293 289 286 282 278 276 270 270 268 268 269 271 268 265 262 263 266 270 270 265 268 270 273 276 277 279 281 278 278 279 279 276 278 282 282 281
280 280 279 282 288 293 297 298 302 306 304 300 294 293 294 289 281 277 275 273 267 266 267 270 273 272 266 263 265 267 270 269 268 269 273 277 277 275 274 277 276 279 282 280 277 279 282 284 284
281 282 281 285 290 294 295 300 301 304 303 301 300 298 296 291 285 278 276 273 263 263 266 270 275 274 272 271 271 272 270 270 272 277 276 277 277 276 277 278 277 281 284 281 280 280 282 282 283
280 280 282 284 288 290 294 300 301 302 305 305 304 299 294 294 295 291 285 276 268 266 268 271 276 277 274 274 276 273 271 273 276 278 279 278 279 280 280 279 279 283 285 283 282 284 283 283 284
279 282 281 281 288 292 293 298 302 300 304 306 305 299 298 298 296 294 287 278 274 270 270 274 277 279 279 277 274 273 275 274 278 281 279 280 280 281 281 281 284 288 288 287 287 286 286 284 284
278 279 278 278 282 289 293 299 301 301 304 305 305 300 297 294 292 287 287 281 277 272 272 277 281 281 280 279 276 275 277 277 280 284 284 284 281 276 276 281 285 287 289 289 288 288 288 288 288
277 278 277 275 279 284 290 294 298 299 302 302 301 300 296 290 286 286 285 285 280 275 273 276 283 282 284 284 281 278 276 276 279 282 282 282 278 275 277 280 281 284 286 288 289 291 293 293 292
Height
5870 5871 5872 5873 5874 5874 5874 5875 5875 5875 5875 5876 5877 5877 5878 5878 5879 5882 5880 5878 5878 5878 5878 5878 5878 5878 5878 5878 5878 5878 5878 5879 5879 5879 5880 5880 5880 5880 5881 5881 5880 5880 5880 5880 5880 5880 5880 5879 5879
5869 5870 5871 5872 5872 5872 5873 5873 5873 5873 5874 5875 5875 5876 5876 5876 5877 5877 5877 5877 5876 5877 5877 5876 5876 5876 5876 5876 5876 5877 5877 5877 5877 5878 5878 5878 5879 5879 5879 5879 5879 5879 5878 5878 5878 5878 5878 5878 5877
5867 5868 5870 5870 5869 5870 5871 5872 5872 5872 5873 5873 5874 5874 5874 5875 5875 5875 5875 5875 5875 5875 5875 5875 5875 5875 5875 5875 5875 5875 5875 5876 5876 5876 5876 5877 5877 5877 5877 5877 5877 5877 5877 5876 5876 5876 5876 5876 5875
5865 5866 5868 5868 5868 5869 5869 5870 5870 5870 5871 5871 5872 5872 5872 5873 5873 5873 5873 5873 5873 5873 5873 5873 5873 5873 5873 5873 5873 5873 5874 5874 5874 5874 5875 5875 5875 5875 5875 5875 5875 5875 5875 5874 5874 5874 5874 5874 5873
5863 5864 5865 5865 5866 5866 5867 5867 5868 5868 5869 5869 5870 5870 5870 5871 5871 5871 5871 5871 5871 5871 5870 5870 5871 5871 5871 5871 5871 5871 5872 5872 5872 5872 5872 5873 5873 5873 5873 5873 5872 5872 5872 5872 5872 5872 5871 5871 5871
5861 5861 5862 5863 5863 5864 5865 5865 5866 5866 5867 5867 5868 5868 5868 5868 5868 5868 5869 5868 5868 5868 5868 5868 5868 5868 5868 5869 5869 5869 5869 5869 5870 5870 5870 5870 5871 5870 5870 5870 5870 5870 5870 5869 5869 5869 5869 5869 5868
5859 5859 5859 5860 5861 5862 5862 5862 5863 5864 5864 5865 5865 5865 5865 5866 5866 5866 5866 5866 5866 5866 5866 5865 5865 5865 5865 5866 5866 5866 5866 5867 5867 5868 5868 5868 5868 5868 5868 5868 5868 5867 5867 5867 5867 5866 5866 5866 5866
5856 5857 5857 5858 5858 5860 5860 5860 5860 5861 5862 5862 5862 5863 5862 5863 5863 5863 5863 5863 5863 5863 5863 5863 5862 5862 5863 5863 5863 5863 5863 5864 5864 5865 5865 5865 5865 5865 5865 5865 5865 5865 5865 5864 5864 5864 5863 5863 5863
5854 5856 5855 5856 5857 5857 5857 5858 5858 5858 5859 5859 5859 5859 5859 5859 5859 5859 5860 5860 5860 5859 5859 5859 5859 5859 5859 5860 5860 5860 5860 5860 5861 5861 5861 5862 5862 5863 5863 5862 5862 5862 5862 5861 5861 5861 5860 5860 5860
5852 5852 5853 5854 5854 5855 5855 5855 5855 5855 5855 5855 5855 5855 5855 5855 5855 5856 5856 5856 5856 5856 5856 5856 5855 5856 5856 5856 5857 5857 5857 5858 5858 5858 5858 5859 5859 5859 5859 5859 5859 5859 5858 5858 5858 5857 5857 5857 5856
5849 5850 5850 5851 5851 5851 5851 5851 5851 5851 5852 5852 5852 5852 5851 5851 5851 5852 5852 5852 5852 5852 5852 5852 5852 5852 5852 5853 5853 5854 5854 5854 5854 5855 5855 5855 5856 5856 5855 5856 5855 5855 5855 5855 5854 5854 5854 5853 5853
5847 5847 5847 5848 5848 5847 5848 5848 5848 5848 5848 5848 5847 5847 5847 5847 5847 5847 5848 5848 5848 5848 5848 5848 5848 5848 5848 5849 5849 5850 5850 5850 5851 5851 5851 5852 5852 5852 5852 5852 5852 5851 5851 5851 5850 5850 5850 5850 5849
5844 5845 5845 5845 5845 5845 5845 5844 5844 5844 5844 5843 5843 5843 5843 5843 5843 5843 5843 5843 5843 5843 5843 5844 5844 5844 5844 5844 5845 5846 5846 5847 5847 5848 5848 5848 5848 5848 5848 5848 5848 5847 5847 5847 5846 5846 5846 5846 5845
5842 5842 5842 5842 5842 5841 5841 5841 5840 5840 5840 5839 5839 5839 5839 5839 5838 5838 5839 5839 5839 5839 5839 5839 5840 5840 5840 5840 5841 5841 5842 5842 5843 5843 5844 5844 5844 5844 5845 5844 5844 5844 5843 5843 5842 5842 5842 5841 5841
5840 5840 5840 5839 5839 5838 5838 5838 5837 5837 5836 5835 5834 5834 5834 5834 5834 5834 5834 5834 5834 5834 5834 5834 5835 5835 5836 5836 5836 5837 5837 5837 5838 5839 5839 5840 5840 5840 5840 5840 5840 5840 5839 5839 5838 5838 5837 5837 5836
5838 5838 5838 5838 5836 5835 5836 5835 5834 5832 5831 5830 5830 5830 5830 5829 5830 5830 5829 5829 5829 5829 5829 5830 5830 5830 5831 5831 5832 5832 5831 5832 5834 5834 5835 5835 5836 5836 5836 5836 5836 5835 5835 5834 5834 5833 5832 5832 5831
5836 5835 5835 5835 5833 5832 5832 5831 5830 5828 5827 5826 5826 5826 5826 5825 5825 5825 5825 5825 5824 5824 5825 5825 5825 5825 5826 5827 5827 5828 5828 5829 5829 5830 5831 5831 5831 5831 5831 5831 5831 5830 5830 5829 5829 5828 5828 5827 5826
5834 5833 5832 5831 5830 5829 5828 5827 5826 5824 5823 5822 5821 5821 5821 5821 5821 5821 5821 5820 5820 5820 5821 5821 5821 5822 5822 5823 5823 5824 5824 5825 5825 5826 5826 5827 5827 5827 5827 5826 5826 5825 5825 5825 5824 5823 5822 5821 5820
5830 5830 5829 5828 5826 5825 5825 5823 5822 5821 5819 5818 5817 5817 5817 5817 5817 5816 5816 5816 5816 5816 5816 5817 5817 5817 5818 5819 5819 5820 5821 5821 5821 5821 5822 5822 5822 5822 5822 5822 5821 5821 5820 5820 5819 5818 5817 5816 5815
5828 5827 5826 5825 5824 5822 5821 5820 5819 5817 5816 5815 5814 5814 5813 5813 5812 5812 5812 5812 5813 5813 5813 5813 5813 5813 5814 5815 5816 5816 5817 5817 5817 5817 5817 5818 5818 5817 5817 5817 5816 5816 5815 5814 5814 5813 5812 5811 5810
5825 5824 5823 5822 5820 5819 5818 5817 5816 5814 5813 5812 5811 5809 5809 5809 5808 5808 5808 5808 5808 5808 5808 5809 5809 5809 5810 5811 5812 5812 5812 5813 5813 5813 5813 5813 5813 5813 5812 5812 5811 5811 5810 5809 5809 5808 5807 5807 5805
5822 5821 5820 5818 5818 5816 5815 5814 5813 5811 5810 5808 5807 5806 5805 5804 5803 5804 5804 5804 5804 5804 5805 5806 5806 5806 5806 5807 5808 5808 5809 5809 5809 5808 5808 5808 5808 5808 5807 5807 5806 5806 5805 5804 5804 5803 5802 5802 5801
5819 5818 5817 5816 5814 5814 5812 5811 5812 5809 5807 5806 5805 5803 5802 5801 5801 5801 5800 5800 5800 5801 5801 5802 5802 5802 5803 5803 5804 5804 5805 5805 5804 5804 5804 5804 5803 5803 5802 5802 5801 5801 5800 5799 5799 5798 5797 5797 5796
5815 5815 5814 5813 5812 5811 5810 5809 5809 5807 5805 5804 5803 5801 5800 5799 5798 5798 5797 5797 5797 5797 5798 5798 5799 5799 5799 5799 5800 5800 5800 5800 5800 5800 5800 5799 5799 5798 5798 5797 5796 5796 5795 5794 5794 5794 5793 5792 5791
5812 5812 5811 5810 5809 5809 5808 5806 5807 5805 5803 5802 5801 5799 5798 5796 5795 5795 5794 5794 5794 5794 5795 5795 5796 5796 5795 5795 5795 5795 5795 5795 5795 5795 5795 5795 5794 5794 5794 5793 5792 5791 5791 5790 5790 5789 5788 5787 5787
5809 5809 5808 5807 5806 5806 5805 5803 5805 5802 5800 5799 5798 5797 5796 5794 5793 5792 5792 5792 5792 5792 5792 5792 5792 5792 5792 5792 5791 5791 5791 5791 5791 5791 5791 5790 5790 5789 5789 5788 5788 5787 5787 5786 5785 5785 5784 5783 5782
5805 5805 5805 5804 5803 5803 5802 5801 5801 5799 5798 5797 5796 5794 5793 5792 5791 5790 5789 5789 5789 5790 5789 5789 5789 5788 5788 5788 5787 5787 5787 5787 5787 5787 5786 5786 5785 5785 5784 5784 5784 5783 5782 5782 5781 5780 5779 5778 5777
5802 5802 5801 5800 5799 5799 5799 5798 5798 5796 5795 5794 5793 5792 5790 5789 5788 5788 5787 5787 5787 5787 5787 5786 5786 5785 5785 5784 5784 5784 5783 5783 5783 5782 5782 5781 5781 5781 5780 5780 5780 5779 5778 5778 5777 5776 5775 5774 5772
5798 5798 5797 5797 5797 5796 5795 5798 5795 5794 5793 5792 5791 5789 5788 5787 5786 5786 5785 5785 5785 5785 5784 5783 5783 5782 5781 5781 5780 5780 5780 5779 5779 5778 5778 5777 5777 5777 5777 5776 5776 5775 5775 5774 5773 5771 5770 5769 5768
5794 5794 5793 5794 5793 5793 5792 5796 5793 5791 5790 5789 5788 5787 5786 5785 5784 5783 5783 5782 5782 5782 5781 5781 5780 5779 5779 5778 5777 5776 5776 5775 5775 5774 5774 5773 5773 5773 5772 5772 5772 5771 5770 5769 5768 5767 5765 5764 5763